Location: Malvern Link
(52.1333°N, 2.3000°W)
Time: 07:41:00
(UTC+00:00)

Cosmos 1908 Rocket - Pass Details

Date: 18 September 2020
Orbit: 607 x 631 km, 82.5° (Epoch: 21 October)

Event Time Altitude Azimuth Distance (km) Brightness Sun altitude
Rises 18:45:31 0° 187° (S) 2,861 7.0 -5.3°
Reaches altitude 10° 18:47:42 10° 186° (S) 1,964 6.1 -5.7°
Maximum altitude 18:52:04 83° 98° (E) 626 3.5 -6.3°
Drops below altitude 10° 18:56:29 10° 12° (NNE) 1,995 6.2 -7.0°
Sets 18:58:44 0° 12° (NNE) 2,910 7.0 -7.3°
